Regional Weather Roundup
Issued by NWS

Home | Current Version | Previous Version | Text Only | Print | Product List | Glossary On
Versions: 1 2 3 4 5 6 7 8 9 10 11 12 13 14 15 16 17 18 19 20 21 22 23 24 25 26 27 28 29 30 31 32 33 34 35 36 37 38 39 40 41 42 43 44 45 46 47 48 49 50
000
ASUS43 KMPX 271610
RWRMN
WEATHER ROUNDUP FOR MINNESOTA
NATIONAL WEATHER SERVICE TWIN CITIES/CHANHASSEN MN
1100 AM CDT WED JUL 27 2016


NOTE: "FAIR" INDICATES FEW OR NO CLOUDS BELOW 12,000 FEET WITH NO
SIGNIFICANT WEATHER AND/OR OBSTRUCTIONS TO VISIBILITY. N/A MEANS
CURRENT SKY AND/OR WEATHER CONDITIONS ARE NOT AVAILABLE.

MNZ060>063-068>070-271700-
   Twin Cities Metro

CITY           SKY/WX    TMP DP  RH WIND       PRES   REMARKS
TWIN CITIES    CLOUDY    79  68  69 SE5       29.95F
ST PAUL        PTSUNNY   78  69  73 E7        29.96S
CRYSTAL        CLOUDY    78  66  66 SE5       29.93F
BLAINE         CLOUDY    79  72  78 SE6       29.96S
LAKEVILLE      CLOUDY    75  68  78 S6        29.96S
EDEN PRAIRIE   MOSUNNY   79  68  69 S7        29.93F
LAKEVILLE      CLOUDY    75  68  78 S6        29.96S
SOUTH ST PAUL  PTSUNNY   78  68  69 SE5       29.95F
LAKE ELMO      CLOUDY    77  72  83 S5        29.98S
$$
MNZ001>005-007-008-013>017-022>024-027-028-271700-
   Northwest Minnesota

CITY           SKY/WX    TMP DP  RH WIND       PRES   REMARKS
BEMIDJI        CLOUDY    68  61  77 NE7       30.02R
HALLOCK        SUNNY     70  61  73 N10       30.07S
ROSEAU         MOSUNNY   72  63  73 NE7       30.06R
WARROAD        MOSUNNY   70  63  78 NE14      30.07R
THIEF RVR FALL SUNNY     71  56  58 N13       30.05S
CROOKSTON      SUNNY     70  61  73 N14       30.05S
FOSSTON        CLOUDY    70  57  64 N7        30.04R
DETROIT LAKES  MOSUNNY   70  63  78 N3        30.03S
MOORHEAD       SUNNY     72  59  64 N13G20    30.03S
PARK RAPIDS    CLOUDY    67  61  81 CALM      30.02R
MAHNOMEN       FAIR      71  58  63 N14       30.03R
$$
MNZ006-009>011-018-025>026-271700-
   North Central Minnesota

CITY           SKY/WX    TMP DP  RH WIND       PRES   REMARKS
BAUDETTE       PTSUNNY   74  60  61 E6        30.04F
FLAG ISLAND    MOSUNNY   70  57  64 N10       30.07R
INTL FALLS     PTSUNNY   68  58  70 NE9       30.05S
WASKISH        PTSUNNY   70  61  73 E8        30.03S
BIG FORK       CLOUDY    66  61  82 E6        30.03F
GRAND RAPIDS   LGT RAIN  63  60  90 CALM      30.03S
CRANE LAKE     CLOUDY    64  61  88 E1        30.07S
ORR            CLOUDY    64  61  88 CALM      30.03R
COOK           CLOUDY    63  61  94 CALM      30.05R
WALKER         CLOUDY    65  63  92 CALM      30.01R
$$
MNZ012-019>021-037-271700-
   Northeast Minnesota

CITY           SKY/WX    TMP DP  RH WIND       PRES   REMARKS
DULUTH         CLOUDY    66  56  70 NE16G23   30.02R
ELY            LGT RAIN  64  61  88 E3        30.04F
HIBBING        LGT RAIN  62  59  90 NE6       30.03F FOG
EVELETH        CLOUDY    65  56  73 SW6       30.06R
DULUTH HARBOR  CLOUDY    64  61  88 NE23      30.01R
TWO HARBORS    PTSUNNY   70  59  68 NE12G18   30.01R
SILVER BAY     PTSUNNY   70  57  64 NE7G17    30.01F
GRAND MARAIS     N/A     65  54  67 E5        30.04S
G MARAIS ARPRT PTSUNNY   64  52  63 NE5       30.08S
$$
MNZ029>031-032-039>041-046>048-054>057-064-271700-
   West Central Minnesota

CITY           SKY/WX    TMP DP  RH WIND       PRES   REMARKS
FERGUS FALLS   CLOUDY    72  63  73 NE7       30.01S
WHEATON        MOSUNNY   73  68  83 N8        30.02R
MORRIS         PTSUNNY   72  66  83 N8        30.00S
ALEXANDRIA     CLOUDY    69  64  84 N6        30.02S
ELBOW LAKE     CLOUDY    69  66  92 N7        30.01S
WADENA         PTSUNNY   64  63  94 NW6       30.01R
GLENWOOD       CLOUDY    72  66  83 NE6       30.01R
APPLETON       PTSUNNY   73  64  73 NW9       29.99R
BENSON         MOSUNNY   75  64  69 NE9       29.99S
ORTONVILLE     CLOUDY    72  64  78 N12       30.01R
MADISON        SUNNY     73  64  73 NW10G17   30.00R
WILLMAR        FAIR      75  66  73 N6        29.98F
$$
MNZ033>034-036-042>043-049>051-058-059-271700-
   Central Minnesota

CITY           SKY/WX    TMP DP  RH WIND       PRES   REMARKS
ST CLOUD       PTSUNNY   72  69  90 N7        29.97R
SAUK CENTRE    PTSUNNY   68  64  88 NE8       30.00R
PAYNESVILLE    CLOUDY    73  70  91 NE6       29.98F
AITKIN         MIX PCPN  68  63  83 CALM      30.00R
PINE RIVER     DRIZZLE   64  64 100 SE3       30.04R
BRAINERD       HVY RAIN  65  63  93 N6        30.01S FOG
STAPLES        CLOUDY    64  63  94 SE3       30.00R
LONG PRAIRIE   FAIR      64  63  94 N5        30.00S
LITTLE FALLS   DRIZZLE   68  64  88 N3        29.99S
LITCHFIELD     CLOUDY    72  72 100 N8        29.97S
BUFFALO        CLOUDY    76  68  75 CALM      29.96S
MAPLE LAKE     PTSUNNY   76  71  87 CALM      29.97R
HUTCHINSON     CLOUDY    76  70  82 CALM      29.97R
$$
MNZ037-044-045-052-053-271700-
   East Central Minnesota

CITY           SKY/WX    TMP DP  RH WIND       PRES   REMARKS
PRINCETON      CLOUDY    75  70  83 CALM      29.96S
MORA           LGT RAIN  70  68  94 CALM      29.99R
CAMBRIDGE      LGT RAIN  75  66  73 NE3       29.92F
RUSH CITY      CLOUDY    71  68  90 CALM      29.98R
MOOSE LAKE     CLOUDY    68  64  88 N5        29.99S
HINCKLEY       PTSUNNY   68  68 100 NE3       29.96F
CLOQUET        CLOUDY    64  55  72 E5        30.03R
MCGREGOR       CLOUDY    66  63  88 CALM      30.01R
$$
MNZ071>073-080-081-089-090-097-098-271700-
   Southwest Minnesota

CITY           SKY/WX    TMP DP  RH WIND       PRES   REMARKS
MONTEVIDEO     MOSUNNY   75  68  78 N12       30.00S
GRANITE FALLS  CLOUDY    76  68  75 NW8       29.99S
CANBY          MOSUNNY   74  65  71 N7        30.02S
MARSHALL       CLOUDY    73  66  78 N12       30.00R
REDWOOD FALLS  CLOUDY    74  67  78 NW9       29.96S
OLIVIA         CLOUDY    73  64  73 N10       29.97S
PIPESTONE      PTSUNNY   77  66  69 N9        30.01R
WINDOM         CLOUDY    77  66  69 SW7       29.98S
WORTHINGTON    PTSUNNY   75  67  76 W6        30.01R
JACKSON        PTSUNNY   75  64  69 S10       29.98F
TRACY          PTSUNNY   74  69  86 NW12G20   30.00R
SLAYTON        CLOUDY    74  68  80 N12       30.01R
$$
MNZ065>067-074>077-082>085-091>093-271700-
   South Central Minnesota

CITY           SKY/WX    TMP DP  RH WIND       PRES   REMARKS
MANKATO        CLOUDY    79  66  65 S9        29.96R
NEW ULM        PTSUNNY   75  70  83 W7        29.95R
ST JAMES       CLOUDY    72  64  78 CALM      29.98R
FAIRMONT       CLOUDY    72  66  83 S9        29.98R
GLENCOE        CLOUDY    78  71  80 S6        29.95R
FARIBAULT      MOSUNNY   79  70  73 S5        29.97F
OWATONNA       CLOUDY    79  68  69 SE9       29.98S
WASECA         CLOUDY    77  68  73 S8        29.98S
ALBERT LEA     PTSUNNY   75  68  78 S10       29.99F
$$
MNZ078>079-086>088-094>096-271700-
   Southeast Minnesota

CITY           SKY/WX    TMP DP  RH WIND       PRES   REMARKS
ROCHESTER      CLOUDY    78  68  71 S3        30.00F
RED WING       CLOUDY    81  70  69 SE5       29.96S
STANTON        MOSUNNY   79  66  65 S7        29.95F
DODGE CENTER   CLOUDY    79  66  65 S9        30.00S
WINONA         MOSUNNY   81  64  57 CALM      29.99F
AUSTIN         CLOUDY    75  66  73 S7        30.00R
PRESTON        CLOUDY    78  65  63 S6        30.01F
$$
ABBREVIATIONS USED IN REMARKS
   TC - TEMPERATURES IN CELSIUS
  WCI - WIND CHILL INDEX
   HX - HEAT INDEX
  VSB - VISIBILITY
$$



USA.gov is the U.S. government's official web portal to all federal, state and local government web resources and services.